Location: Sungai Bunut
(2.6333°N, 113.7333°E)
Time: 20:57:23
(UTC+00:00)

Vanguard 1 - Pass Details

Date: 06 December 2023
Orbit: 653 x 3826 km, 34.3° (Epoch: 28 February)

Event Time Altitude Azimuth Distance (km) Brightness Sun altitude
Exits shadow 18:25:17 57° 144° (SE) 2,742 12.2 -52.9°
Drops below altitude 10° 18:33:22 10° 132° (SE) 4,157 13.7 -51.2°
Sets 18:35:57 0° 131° (SE) 4,835 14.2 -50.7°
